Regional Weather Roundup
Issued by NWS

Home | Current Version | Previous Version | Graphics & Text | Print | Product List | Glossary On
Versions: 1 2 3 4 5 6 7 8 9 10 11 12 13 14 15 16 17 18 19 20 21 22 23 24 25 26 27
000
ASUS45 KBOI 231110
RWRID
WEATHER ROUNDUP FOR IDAHO
NATIONAL WEATHER SERVICE BOISE ID
500 AM MDT THU OCT 23 2014

NOTE: "FAIR" INDICATES FEW OR NO CLOUDS BELOW 12000 FEET
WITH NO SIGNIFICANT WEATHER AND/OR OBSTRUCTIONS TO VISIBILITY

IDZ012-014-231200-
SOUTHWEST IDAHO


CITY           SKY/WX    TMP DP  RH WIND       PRES   REMARKS
BOISE          LGT RAIN  54  41  61 SE3       30.03R
CALDWELL       CLOUDY    52  37  58 SE12      30.00F
MOUNTAIN HOME  CLOUDY    54  34  45 E8        30.01S
$$

IDZ016-017-231200-
SOUTHCENTRAL IDAHO


CITY           SKY/WX    TMP DP  RH WIND       PRES   REMARKS
BURLEY         PTCLDY    47  28  47 SE5       30.04F
JEROME         PTCLDY    47  29  49 NE13      30.05F
TWIN FALLS     PTCLDY    43  32  65 SE7       30.05F
$$

IDZ019>023-231200-
SOUTHEAST IDAHO


CITY           SKY/WX    TMP DP  RH WIND       PRES   REMARKS
IDAHO FALLS    CLOUDY    42  33  70 NE6       30.11F
POCATELLO      CLEAR     40  29  64 NW7       30.10S
REXBURG        CLOUDY    38  32  79 NE3       30.14F
$$

IDZ006-010-011-018-031-032-231200-
CENTRAL IDAHO MOUNTAINS


CITY           SKY/WX    TMP DP  RH WIND       PRES   REMARKS
MCCALL         LGT RAIN  44  40  85 SE12      30.01F
HAILEY         CLOUDY    45  36  70 NW7       30.10S
STANLEY          N/A     40  37  89 S7        30.10F
SALMON         CLOUDY   N/A N/A N/A MISG        N/A
CHALLIS        CLOUDY    49  36  61 S10       30.04F
$$

IDZ002-004-006-007-026-231200-
NORTHERN IDAHO


CITY           SKY/WX    TMP DP  RH WIND       PRES   REMARKS
LEWISTON       CLOUDY    61  44  53 S7        29.79F
LOWELL           N/A     50  48  93 CALM      29.91S
COEUR D`ALENE  CLOUDY    52  46  82 S10       29.79S
MULLAN PASS    CLOUDY    38  38 100 S12G26    29.87F FOG     WCI  30
$$



USA.gov is the U.S. government's official web portal to all federal, state and local government web resources and services.